 day,  time,  air_temp(C),  RH(%),  ground_temp10cm(C),  ground_temp20cm(C),  ground_temp40cm(C),  precipitation(mm/h),  Solar_Radiation(MJ/m2h),  lack, 
 08/05/01, 01:00,  10.6,  76,  11.5,  10.9,   8.5,   0.0,  0.00, 
 08/05/01, 02:00,   9.5,  80,  11.1,  10.9,   8.5,   0.0,  0.00, 
 08/05/01, 03:00,  10.4,  75,  10.8,  10.8,   8.5,   0.0,  0.00, 
 08/05/01, 04:00,   8.0,  86,  10.6,  10.7,   8.6,   0.0,  0.00, 
 08/05/01, 05:00,   6.9,  91,  10.3,  10.6,   8.6,   0.0,  0.00, 
 08/05/01, 06:00,   9.1,  80,  10.0,  10.5,   8.6,   0.0,  0.13, 
 08/05/01, 07:00,  11.0,  75,   9.9,  10.4,   8.7,   0.0,  0.58, 
 08/05/01, 08:00,  12.8,  67,   9.9,  10.3,   8.6,   0.0,  1.29, 
 08/05/01, 09:00,  13.5,  66,  10.3,  10.2,   8.7,   0.0,  1.80, 
 08/05/01, 10:00,  14.9,  64,  10.8,  10.2,   8.7,   0.0,  2.31, 
 08/05/01, 11:00,  14.5,  61,  11.5,  10.1,   8.8,   0.0,  1.75, 
 08/05/01, 12:00,  14.4,  62,  12.0,  10.2,   8.8,   0.0,  2.03, 
 08/05/01, 13:00,  16.4,  61,  12.5,  10.3,   8.8,   0.0,  2.93, 
 08/05/01, 14:00,  16.7,  64,  13.0,  10.4,   8.8,   0.0,  1.83, 
 08/05/01, 15:00,  15.4,  69,  13.3,  10.5,   8.8,   0.0,  0.83, 
 08/05/01, 16:00,  14.4,  71,  13.4,  10.7,   8.8,   0.0,  0.69, 
 08/05/01, 17:00,  12.7,  75,  13.3,  10.8,   8.8,   0.0,  0.32, 
 08/05/01, 18:00,  11.6,  82,  13.2,  10.9,   8.8,   0.0,  0.13, 
 08/05/01, 19:00,  10.7,  92,  12.8,  11.0,   8.9,   0.0,  0.02, 
 08/05/01, 20:00,  10.6,  94,  12.6,  11.1,   8.9,   0.0,  0.00, 
 08/05/01, 21:00,  10.0,  95,  12.3,  11.1,   8.9,   0.0,  0.00, 
 08/05/01, 22:00,   9.1,  97,  12.1,  11.1,   8.9,   0.0,  0.00, 
 08/05/01, 23:00,   9.5,  86,  11.8,  11.1,   8.9,   0.0,  0.00, 
 08/05/02, 00:00,   8.2,  99,  11.5,  11.1,   9.0,   0.0,  0.00, 
 08/05/02, 01:00,   7.8,  99,  11.3,  11.1,   9.0,   0.0,  0.00, 
 08/05/02, 02:00,   8.9,  97,  11.0,  11.0,   9.0,   0.0,  0.00, 
 08/05/02, 03:00,  10.5,  78,  10.8,  10.9,   9.0,   0.0,  0.00, 
 08/05/02, 04:00,   8.0,  91,  10.6,  10.8,   9.0,   0.0,  0.00, 
 08/05/02, 05:00,   7.9,  89,  10.4,  10.8,   9.1,   0.0,  0.00, 
 08/05/02, 06:00,   9.0,  75,  10.1,  10.7,   9.0,   0.0,  0.09, 
 08/05/02, 07:00,  10.2,  76,  10.0,  10.5,   9.0,   0.0,  0.56, 
 08/05/02, 08:00,  11.6,  69,  10.0,  10.5,   9.0,   0.0,  1.10, 
 08/05/02, 09:00,  13.5,  65,  10.3,  10.4,   9.1,   0.0,  1.57, 
 08/05/02, 10:00,  14.9,  67,  10.7,  10.3,   9.1,   0.0,  1.97, 
 08/05/02, 11:00,  15.6,  61,  11.3,  10.3,   9.1,   0.0,  2.18, 
 08/05/02, 12:00,  17.1,  53,  12.0,  10.3,   9.1,   0.0,  2.06, 
 08/05/02, 13:00,  18.7,  52,  12.5,  10.4,   9.2,   0.0,  2.22, 
 08/05/02, 14:00,  17.5,  52,  13.1,  10.5,   9.2,   0.0,  1.96, 
 08/05/02, 15:00,  18.0,  53,  13.5,  10.7,   9.2,   0.0,  1.53, 
 08/05/02, 16:00,  17.2,  55,  13.6,  10.7,   9.1,   0.0,  1.09, 
 08/05/02, 17:00,  16.8,  55,  13.7,  11.0,   9.2,   0.0,  0.86, 
 08/05/02, 18:00,  15.9,  58,  13.7,  11.1,   9.1,   0.0,  0.34, 
 08/05/02, 19:00,  14.0,  71,  13.6,  11.2,   9.2,   0.0,  0.05, 
 08/05/02, 20:00,  12.8,  75,  13.3,  11.4,   9.1,   0.0,  0.00, 
 08/05/02, 21:00,  11.5,  80,  13.0,  11.4,   9.1,   0.0,  0.00, 
 08/05/02, 22:00,  11.1,  77,  12.6,  11.5,   9.2,   0.0,  0.00, 
 08/05/02, 23:00,  11.2,  75,  12.3,  11.5,   9.3,   0.0,  0.00, 
 08/05/03, 00:00,  10.2,  80,  12.0,  11.5,   9.2,   0.0,  0.00, 
 08/05/03, 01:00,  10.8,  79,  11.7,  11.4,   9.2,   0.0,  0.00, 
 08/05/03, 02:00,  10.3,  79,  11.4,  11.4,   9.3,   0.0,  0.00, 
 08/05/03, 03:00,   9.3,  86,  11.2,  11.3,   9.2,   0.0,  0.00, 
 08/05/03, 04:00,   9.8,  83,  10.9,  11.2,   9.3,   0.0,  0.00, 
 08/05/03, 05:00,  11.1,  77,  10.7,  11.1,   9.3,   0.0,  0.00, 
 08/05/03, 06:00,  10.5,  79,  10.5,  11.0,   9.3,   0.0,  0.09, 
 08/05/03, 07:00,  13.8,  73,  10.4,  10.9,   9.3,   0.0,  0.86, 
 08/05/03, 08:00,  15.0,  66,  10.6,  10.8,   9.3,   0.0,  1.68, 
 08/05/03, 09:00,  17.4,  59,  11.3,  10.8,   9.5,   0.0,  2.35, 
 08/05/03, 10:00,  18.0,  57,  12.1,  10.7,   9.4,   0.0,  2.95, 
 08/05/03, 11:00,  19.9,  53,  13.3,  10.8,   9.4,   0.0,  3.34, 
 08/05/03, 12:00,  21.4,  49,  14.7,  10.9,   9.4,   0.0,  3.58, 
 08/05/03, 13:00,  22.9,  44,  15.9,  11.1,   9.4,   0.0,  3.45, 
 08/05/03, 14:00,  23.1,  44,  16.2,  11.4,   9.4,   0.0,  3.25, 
 08/05/03, 15:00,  22.3,  48,  16.3,  11.7,   9.4,   0.0,  2.92, 
 08/05/03, 16:00,  21.1,  50,  16.3,  12.0,   9.5,   0.0,  2.34, 
 08/05/03, 17:00,  19.0,  58,  16.5,  12.3,   9.5,   0.0,  1.49, 
 08/05/03, 18:00,  17.3,  66,  16.4,  12.5,   9.4,   0.0,  0.68, 
 08/05/03, 19:00,  14.6,  76,  15.9,  12.7,   9.6,   0.0,  0.10, 
 08/05/03, 20:00,  12.2,  87,  15.5,  12.8,   9.6,   0.0,  0.00, 
 08/05/03, 21:00,  10.8,  92,  15.1,  12.9,   9.6,   0.0,  0.00, 
 08/05/03, 22:00,  10.9,  92,  14.5,  12.9,   9.6,   0.0,  0.00, 
 08/05/03, 23:00,  10.7,  92,  14.2,  12.9,   9.7,   0.0,  0.00, 
 08/05/04, 00:00,  10.1,  89,  13.7,  12.9,   9.7,   0.0,  0.00, 
 08/05/04, 01:00,   9.7,  86,  13.3,  12.8,   9.8,   0.0,  0.00, 
 08/05/04, 02:00,   9.2,  89,  12.9,  12.6,   9.8,   0.0,  0.00, 
 08/05/04, 03:00,   9.4,  86,  12.5,  12.5,   9.8,   0.0,  0.00, 
 08/05/04, 04:00,   9.8,  89,  12.2,  12.5,   9.8,   0.0,  0.00, 
 08/05/04, 05:00,   9.9,  77,  11.9,  12.4,   9.9,   0.0,  0.00, 
 08/05/04, 06:00,  14.1,  69,  11.6,  12.1,   9.8,   0.0,  0.11, 
 08/05/04, 07:00,  16.0,  57,  11.5,  12.1,  10.0,   0.0,  0.80, 
 08/05/04, 08:00,  15.5,  60,  11.7,  12.0,   9.9,   0.0,  1.61, 
 08/05/04, 09:00,  17.5,  58,  12.3,  11.9,  10.0,   0.0,  2.36, 
 08/05/04, 10:00,  22.2,  46,  13.2,  11.8,   9.9,   0.0,  2.95, 
 08/05/04, 11:00,  21.6,  50,  14.2,  11.8,  10.1,   0.0,  3.35, 
 08/05/04, 12:00,  24.3,  48,  15.6,  11.9,  10.1,   0.0,  3.61, 
 08/05/04, 13:00,  23.7,  50,  16.9,  12.1,  10.1,   0.0,  3.54, 
 08/05/04, 14:00,  21.3,  59,  17.3,  12.4,  10.1,   0.0,  2.18, 
 08/05/04, 15:00,  22.3,  57,  17.3,  12.7,  10.1,   0.0,  2.73, 
 08/05/04, 16:00,  19.6,  66,  17.3,  13.0,  10.1,   0.0,  0.66, 
 08/05/04, 17:00,  18.3,  72,  17.1,  13.2,  10.1,   0.0,  0.31, 
 08/05/04, 18:00,  16.8,  77,  16.9,  13.4,  10.1,   0.0,  0.28, 
 08/05/04, 19:00,  15.7,  80,  16.6,  13.6,  10.2,   0.0,  0.04, 
 08/05/04, 20:00,  14.6,  85,  16.3,  13.7,  10.2,   0.0,  0.00, 
 08/05/04, 21:00,  14.0,  87,  15.8,  13.7,  10.2,   0.0,  0.00, 
 08/05/04, 22:00,  12.9,  91,  15.6,  13.8,  10.2,   0.0,  0.00, 
 08/05/04, 23:00,  12.6,  95,  15.2,  13.8,  10.3,   0.0,  0.00, 
 08/05/05, 00:00,  12.6,  93,  14.8,  13.7,  10.3,   0.0,  0.00, 
 08/05/05, 01:00,  12.2,  98,  14.6,  13.7,  10.4,   0.0,  0.00, 
 08/05/05, 02:00,  12.2,  98,  14.5,  13.6,  10.4,   0.0,  0.00, 
 08/05/05, 03:00,  12.1,  99,  14.3,  13.5,  10.4,   0.0,  0.00, 
 08/05/05, 04:00,  12.0,  99,  14.2,  13.5,  10.5,   0.0,  0.00, 
 08/05/05, 05:00,  12.0,  99,  13.9,  13.4,  10.5,   0.0,  0.00, 
 08/05/05, 06:00,  11.8,  99,  13.8,  13.3,  10.5,   0.0,  0.00, 
 08/05/05, 07:00,  11.8,  99,  13.7,  13.3,  10.6,   0.0,  0.12, 
 08/05/05, 08:00,  12.3,  99,  13.5,  13.2,  10.5,   0.0,  0.37, 
 08/05/05, 09:00,  12.2,  99,  13.6,  13.1,  10.6,   0.0,  0.35, 
 08/05/05, 10:00,  12.5,  98,  13.6,  13.1,  10.7,   0.0,  0.45, 
 08/05/05, 11:00,  13.9,  96,  13.7,  13.0,  10.6,   0.0,  0.92, 
 08/05/05, 12:00,  12.6,  97,  13.8,  13.0,  10.7,   0.5,  0.53, 
 08/05/05, 13:00,  12.5,  98,  13.9,  12.9,  10.7,   0.0,  0.43, 
 08/05/05, 14:00,  12.2,  93,  13.8,  12.9,  10.7,   0.0,  0.33, 
 08/05/05, 15:00,  12.4,  91,  13.8,  12.9,  10.6,   0.0,  0.30, 
 08/05/05, 16:00,  11.3,  99,  13.7,  12.8,  10.6,   1.5,  0.15, 
 08/05/05, 17:00,  10.8,  99,  13.5,  12.8,  10.7,   4.0,  0.06, 
 08/05/05, 18:00,  10.6,  99,  13.3,  12.8,  10.7,   1.5,  0.03, 
 08/05/05, 19:00,  10.9,  99,  13.1,  12.7,  10.7,   0.5,  0.00, 
 08/05/05, 20:00,  10.1,  99,  13.0,  12.7,  10.7,   1.5,  0.00, 
 08/05/05, 21:00,   8.2,  99,  12.8,  12.7,  10.8,   0.0,  0.00, 
 08/05/05, 22:00,   6.5,  98,  12.6,  12.6,  10.7,   0.0,  0.00, 
 08/05/05, 23:00,   5.4,  97,  12.3,  12.5,  10.7,   1.0,  0.00, 
 08/05/06, 00:00,   4.4,  96,  12.0,  12.5,  10.7,   0.0,  0.00, 
 08/05/06, 01:00,   3.1,  99,  11.7,  12.5,  10.7,   0.0,  0.00, 
 08/05/06, 02:00,   2.9,  93,  11.3,  12.4,  10.7,   0.0,  0.00, 
 08/05/06, 03:00,   2.1,  68,  10.9,  12.2,  10.7,   0.0,  0.00, 
 08/05/06, 04:00,   2.2,  51,  10.4,  12.1,  10.7,   0.0,  0.00, 
 08/05/06, 05:00,   3.0,  36,  10.0,  11.9,  10.7,   0.0,  0.00, 
 08/05/06, 06:00,   2.4,  40,   9.6,  11.8,  10.7,   0.0,  0.11, 
 08/05/06, 07:00,   6.1,  35,   9.2,  11.6,  10.7,   0.0,  0.91, 
 08/05/06, 08:00,   8.0,  33,   9.2,  11.4,  10.7,   0.0,  1.73, 
 08/05/06, 09:00,   9.4,  31,   9.8,  11.2,  10.7,   0.0,  2.51, 
 08/05/06, 10:00,  10.7,  37,  10.5,  11.1,  10.7,   0.0,  3.16, 
 08/05/06, 11:00,  12.1,  31,  11.6,  11.0,  10.7,   0.0,  3.57, 
 08/05/06, 12:00,  14.7,  28,  13.0,  11.1,  10.7,   0.0,  3.78, 
 08/05/06, 13:00,  14.5,  26,  14.4,  11.2,  10.7,   0.0,  3.77, 
 08/05/06, 14:00,  16.3,  26,  14.5,  11.4,  10.6,   0.0,  3.50, 
 08/05/06, 15:00,  15.8,  24,  14.3,  11.7,  10.6,   0.0,  3.03, 
 08/05/06, 16:00,  16.5,  23,  14.2,  11.9,  10.6,   0.0,  2.37, 
 08/05/06, 17:00,  15.9,  31,  14.5,  12.1,  10.6,   0.0,  1.58, 
 08/05/06, 18:00,  13.3,  39,  14.4,  12.2,  10.6,   0.0,  0.70, 
 08/05/06, 19:00,  10.7,  45,  14.0,  12.3,  10.7,   0.0,  0.14, 
 08/05/06, 20:00,  10.2,  41,  13.5,  12.4,  10.6,   0.0,  0.00, 
 08/05/06, 21:00,  10.0,  39,  13.1,  12.5,  10.6,   0.0,  0.00, 
 08/05/06, 22:00,   9.4,  45,  12.6,  12.5,  10.6,   0.0,  0.00, 
 08/05/06, 23:00,   8.1,  53,  12.1,  12.4,  10.6,   0.0,  0.00, 
 08/05/07, 00:00,   7.9,  55,  11.8,  12.3,  10.7,   0.0,  0.00, 
 08/05/07, 01:00,   7.2,  57,  11.4,  12.1,  10.6,   0.0,  0.00, 
 08/05/07, 02:00,   5.2,  63,  11.1,  12.1,  10.6,   0.0,  0.00, 
 08/05/07, 03:00,   5.2,  64,  10.8,  12.0,  10.6,   0.0,  0.00, 
 08/05/07, 04:00,   6.2,  54,  10.5,  11.9,  10.6,   0.0,  0.00, 
 08/05/07, 05:00,   8.7,  41,  10.2,  11.6,  10.6,   0.0,  0.00, 
 08/05/07, 06:00,  10.4,  36,  10.0,  11.6,  10.6,   0.0,  0.15, 
 08/05/07, 07:00,  11.3,  39,   9.8,  11.4,  10.6,   0.0,  0.79, 
 08/05/07, 08:00,  12.1,  35,   9.9,  11.3,  10.6,   0.0,  1.47, 
 08/05/07, 09:00,  14.1,  34,  10.3,  11.2,  10.6,   0.0,  2.19, 
 08/05/07, 10:00,  15.2,  36,  11.0,  11.1,  10.6,   0.0,  2.81, 
 08/05/07, 11:00,  16.6,  34,  12.0,  11.1,  10.6,   0.0,  3.23, 
 08/05/07, 12:00,  18.9,  29,  13.3,  11.1,  10.6,   0.0,  3.45, 
 08/05/07, 13:00,  18.1,  31,  14.5,  11.3,  10.6,   0.0,  3.37, 
 08/05/07, 14:00,  20.3,  29,  14.8,  11.5,  10.6,   0.0,  3.15, 
 08/05/07, 15:00,  19.8,  31,  14.8,  11.7,  10.7,   0.0,  2.68, 
 08/05/07, 16:00,  20.2,  31,  14.9,  12.0,  10.7,   0.0,  2.03, 
 08/05/07, 17:00,  18.1,  34,  15.0,  12.2,  10.7,   0.0,  1.35, 
 08/05/07, 18:00,  15.1,  56,  14.9,  12.3,  10.6,   0.0,  0.62, 
 08/05/07, 19:00,  13.2,  59,  14.6,  12.5,  10.6,   0.0,  0.08, 
 08/05/07, 20:00,  10.6,  69,  14.3,  12.6,  10.6,   0.0,  0.00, 
 08/05/07, 21:00,  10.1,  68,  13.8,  12.6,  10.7,   0.0,  0.00, 
 08/05/07, 22:00,  11.7,  59,  13.5,  12.7,  10.7,   0.0,  0.00, 
 08/05/07, 23:00,  11.9,  51,  13.1,  12.6,  10.6,   0.0,  0.00, 
 08/05/08, 00:00,  12.1,  41,  12.7,  12.5,  10.6,   0.0,  0.00, 
 08/05/08, 01:00,  12.3,  33,  12.5,  12.5,  10.7,   0.0,  0.00, 
 08/05/08, 02:00,  12.7,  28,  12.2,  12.5,  10.6,   0.0,  0.00, 
 08/05/08, 03:00,  12.6,  27,  12.0,  12.4,  10.7,   0.0,  0.00, 
 08/05/08, 04:00,  12.5,  26,  11.8,  12.3,  10.7,   0.0,  0.00, 
 08/05/08, 05:00,  12.3,  23,  11.6,  12.2,  10.7,   0.0,  0.00, 
 08/05/08, 06:00,  12.0,  24,  11.4,  12.1,  10.7,   0.0,  0.10, 
 08/05/08, 07:00,  12.8,  31,  11.2,  12.0,  10.7,   0.0,  0.49, 
 08/05/08, 08:00,  14.9,  19,  11.2,  11.9,  10.7,   0.0,  1.08, 
 08/05/08, 09:00,  15.0,  25,  11.4,  11.8,  10.8,   0.0,  1.50, 
 08/05/08, 10:00,  16.8,  25,  11.8,  11.8,  10.7,   0.0,  1.92, 
 08/05/08, 11:00,  18.4,  31,  12.4,  11.7,  10.7,   0.0,  2.75, 
 08/05/08, 12:00,  20.3,  27,  13.4,  11.7,  10.7,   0.0,  2.85, 
 08/05/08, 13:00,  20.1,  28,  14.3,  11.8,  10.8,   0.0,  2.96, 
 08/05/08, 14:00,  20.7,  32,  14.8,  11.9,  10.8,   0.0,  2.63, 
 08/05/08, 15:00,  19.1,  35,  15.0,  12.1,  10.8,   0.0,  2.63, 
 08/05/08, 16:00,  18.4,  37,  15.1,  12.3,  10.8,   0.0,  1.85, 
 08/05/08, 17:00,  17.1,  47,  15.3,  12.5,  10.8,   0.0,  1.27, 
 08/05/08, 18:00,  15.1,  55,  15.2,  12.6,  10.8,   0.0,  0.53, 
 08/05/08, 19:00,  13.5,  62,  15.0,  12.8,  10.8,   0.0,  0.08, 
 08/05/08, 20:00,  12.3,  66,  14.5,  12.9,  10.8,   0.0,  0.00, 
 08/05/08, 21:00,  12.3,  59,  14.3,  12.9,  10.9,   0.0,  0.00, 
 08/05/08, 22:00,  10.9,  67,  14.0,  13.0,  10.9,   0.0,  0.00, 
 08/05/08, 23:00,  10.0,  77,  13.7,  13.0,  10.9,   0.0,  0.00, 
 08/05/09, 00:00,   9.3,  81,  13.4,  12.9,  10.9,   0.0,  0.00, 
 08/05/09, 01:00,   9.0,  86,  13.1,  12.9,  10.9,   0.0,  0.00, 
 08/05/09, 02:00,   8.5,  91,  12.8,  12.8,  10.9,   0.0,  0.00, 
 08/05/09, 03:00,   8.4,  92,  12.6,  12.8,  11.0,   0.0,  0.00, 
 08/05/09, 04:00,   7.7,  99,  12.4,  12.6,  10.9,   0.0,  0.00, 
 08/05/09, 05:00,   7.7,  95,  12.2,  12.5,  10.9,   0.0,  0.00, 
 08/05/09, 06:00,   7.4,  99,  12.0,  12.5,  10.9,   0.0,  0.06, 
 08/05/09, 07:00,   7.6,  99,  11.9,  12.4,  10.9,   0.0,  0.18, 
 08/05/09, 08:00,   9.4,  90,  11.8,  12.3,  11.0,   0.0,  0.95, 
 08/05/09, 09:00,   9.7,  86,  12.0,  12.3,  11.0,   0.0,  1.37, 
 08/05/09, 10:00,   9.9,  73,  12.2,  12.2,  11.1,   0.0,  1.16, 
 08/05/09, 11:00,  11.5,  59,  12.4,  12.1,  11.1,   0.0,  1.85, 
 08/05/09, 12:00,  11.0,  50,  12.5,  12.1,  11.1,   0.0,  1.50, 
 08/05/09, 13:00,  10.8,  43,  13.1,  12.1,  11.1,   0.0,  1.32, 
 08/05/09, 14:00,  14.5,  38,  13.2,  12.2,  11.1,   0.0,  2.76, 
 08/05/09, 15:00,  12.4,  40,  13.4,  12.2,  11.1,   0.0,  2.60, 
 08/05/09, 16:00,  11.0,  53,  13.5,  12.3,  11.1,   0.0,  1.57, 
 08/05/09, 17:00,  11.4,  48,  13.5,  12.3,  11.1,   0.0,  1.30, 
 08/05/09, 18:00,   9.4,  66,  13.5,  12.4,  11.0,   0.0,  0.68, 
 08/05/09, 19:00,   7.8,  75,  13.3,  12.4,  11.0,   0.0,  0.06, 
 08/05/09, 20:00,   6.1,  84,  12.9,  12.4,  11.0,   0.0,  0.00, 
 08/05/09, 21:00,   5.3,  86,  12.6,  12.4,  11.0,   0.0,  0.00, 
 08/05/09, 22:00,   4.8,  88,  12.3,  12.4,  11.1,   0.0,  0.00, 
 08/05/09, 23:00,   4.8,  89,  12.0,  12.4,  11.0,   0.0,  0.00, 
 08/05/10, 00:00,   4.2,  88,  11.7,  12.3,  11.1,   0.0,  0.00, 
 08/05/10, 01:00,   5.2,  88,  11.4,  12.2,  11.0,   0.0,  0.00, 
 08/05/10, 02:00,   5.0,  88,  11.2,  12.1,  11.0,   0.0,  0.00, 
 08/05/10, 03:00,   3.8,  96,  11.0,  12.0,  11.0,   0.0,  0.00, 
 08/05/10, 04:00,   4.6,  99,  10.8,  11.9,  11.0,   0.0,  0.00, 
 08/05/10, 05:00,   5.4,  99,  10.7,  11.8,  11.0,   0.0,  0.00, 
 08/05/10, 06:00,   5.0,  99,  10.5,  11.6,  11.0,   0.5,  0.02, 
 08/05/10, 07:00,   5.0,  99,  10.4,  11.6,  11.0,   0.0,  0.12, 
 08/05/10, 08:00,   5.3,  99,  10.3,  11.4,  11.0,   0.0,  0.22, 
 08/05/10, 09:00,   6.6,  85,  10.3,  11.4,  11.0,   0.0,  0.57, 
 08/05/10, 10:00,   6.6,  89,  10.3,  11.4,  11.0,   0.0,  0.56, 
 08/05/10, 11:00,   6.5,  99,  10.4,  11.3,  11.0,   1.0,  0.60, 
 08/05/10, 12:00,   5.5,  99,  10.5,  11.2,  10.9,   0.0,  0.47, 
 08/05/10, 13:00,   5.5,  99,  10.6,  11.1,  10.9,   1.0,  0.31, 
 08/05/10, 14:00,   5.7,  99,  10.6,  11.1,  10.9,   1.5,  0.28, 
 08/05/10, 15:00,   5.4,  99,  10.5,  11.1,  10.9,   2.0,  0.28, 
 08/05/10, 16:00,   5.4,  99,  10.4,  11.1,  10.9,   1.5,  0.18, 
 08/05/10, 17:00,   5.1,  99,  10.3,  10.9,  10.9,   1.5,  0.12, 
 08/05/10, 18:00,   5.0,  99,  10.2,  10.9,  10.9,   1.5,  0.04, 
 08/05/10, 19:00,   4.7,  99,  10.0,  10.9,  10.8,   2.0,  0.00, 
 08/05/10, 20:00,   4.6,  99,   9.8,  10.8,  10.8,   2.0,  0.00, 
 08/05/10, 21:00,   4.1,  99,   9.6,  10.8,  10.8,   2.0,  0.00, 
 08/05/10, 22:00,   3.8,  99,   9.4,  10.8,  10.8,   2.5,  0.00, 
 08/05/10, 23:00,   3.6,  99,   9.3,  10.6,  10.8,   1.0,  0.00, 
 08/05/11, 00:00,   3.3,  99,   9.1,  10.5,  10.8,   1.5,  0.00, 
 08/05/11, 01:00,   2.9,  99,   8.9,  10.5,  10.8,   1.5,  0.00, 
 08/05/11, 02:00,   2.6,  99,   8.7,  10.4,  10.7,   1.0,  0.00, 
 08/05/11, 03:00,   2.5,  99,   8.6,  10.3,  10.7,   1.0,  0.00, 
 08/05/11, 04:00,   2.6,  99,   8.4,  10.2,  10.7,   0.5,  0.00, 
 08/05/11, 05:00,   2.6,  99,   8.3,  10.1,  10.7,   0.5,  0.00, 
 08/05/11, 06:00,   2.6,  99,   8.2,   9.9,  10.5,   1.0,  0.02, 
 08/05/11, 07:00,   3.0,  99,   8.1,   9.9,  10.6,   0.5,  0.15, 
 08/05/11, 08:00,   3.7,  99,   8.1,   9.7,  10.6,   0.5,  0.43, 
 08/05/11, 09:00,   3.9,  99,   8.1,   9.7,  10.6,   0.5,  0.56, 
 08/05/11, 10:00,   4.2,  99,   8.3,   9.5,  10.5,   0.5,  1.09, 
 08/05/11, 11:00,   4.9,  99,   8.6,   9.5,  10.5,   0.5,  0.96, 
 08/05/11, 12:00,   4.7,  99,   8.8,   9.4,  10.5,   0.0,  0.93, 
 08/05/11, 13:00,   4.9,  99,   9.0,   9.4,  10.4,   0.5,  0.88, 
 08/05/11, 14:00,   4.7,  99,   9.2,   9.4,  10.4,   0.0,  0.46, 
 08/05/11, 15:00,   4.5,  99,   9.3,   9.4,  10.4,   0.0,  0.43, 
 08/05/11, 16:00,   4.2,  99,   9.3,   9.5,  10.3,   0.0,  0.36, 
 08/05/11, 17:00,   4.1,  99,   9.3,   9.5,  10.3,   0.0,  0.27, 
 08/05/11, 18:00,   3.8,  99,   9.2,   9.5,  10.3,   0.5,  0.12, 
 08/05/11, 19:00,   3.5,  99,   9.1,   9.5,  10.2,   0.0,  0.03, 
 08/05/11, 20:00,   3.4,  99,   9.0,   9.6,  10.2,   0.5,  0.00, 
 08/05/11, 21:00,   3.3,  99,   8.8,   9.5,  10.2,   0.0,  0.00, 
 08/05/11, 22:00,   3.3,  99,   8.7,   9.5,  10.2,   0.0,  0.00, 
 08/05/11, 23:00,   2.7,  99,   8.6,   9.5,  10.2,   0.0,  0.00, 
 08/05/12, 00:00,   2.5,  99,   8.4,   9.4,  10.1,   0.0,  0.00, 
 08/05/12, 01:00,   2.4,  99,   8.3,   9.4,  10.1,   0.0,  0.00, 
 08/05/12, 02:00,   2.5,  99,   8.2,   9.3,  10.1,   0.0,  0.00, 
 08/05/12, 03:00,   1.4,  99,   8.1,   9.3,  10.1,   0.0,  0.00, 
 08/05/12, 04:00,   1.1,  98,   7.9,   9.2,  10.1,   0.0,  0.00, 
 08/05/12, 05:00,   0.4,  99,   7.7,   9.2,  10.0,   0.0,  0.00, 
 08/05/12, 06:00,   0.8,  97,   7.3,   9.1,  10.0,   0.0,  0.08, 
 08/05/12, 07:00,   2.6,  99,   7.2,   9.0,   9.9,   0.0,  0.65, 
 08/05/12, 08:00,   3.1,  99,   7.2,   8.9,  10.0,   0.5,  1.58, 
 08/05/12, 09:00,   6.0,  99,   7.6,   8.9,  10.0,   0.0,  2.02, 
 08/05/12, 10:00,   7.0,  98,   8.2,   8.9,   9.9,   0.0,  2.26, 
 08/05/12, 11:00,   8.8,  78,   8.9,   8.9,   9.9,   0.0,  2.68, 
 08/05/12, 12:00,  10.3,  70,   9.9,   8.9,   9.7,   0.0,  2.96, 
 08/05/12, 13:00,  11.2,  52,  10.8,   8.9,   9.9,   0.0,  3.32, 
 08/05/12, 14:00,  12.2,  39,  11.2,   9.2,   9.7,   0.0,  3.22, 
 08/05/12, 15:00,  14.0,  42,  11.4,   9.3,   9.6,   0.0,  2.54, 
 08/05/12, 16:00,  12.4,  51,  11.6,   9.5,   9.6,   0.0,  1.50, 
 08/05/12, 17:00,  12.5,  53,  11.8,   9.8,   9.8,   0.0,  1.20, 
 08/05/12, 18:00,  11.2,  55,  11.7,   9.9,   9.8,   0.0,  0.57, 
 08/05/12, 19:00,   9.8,  68,  11.7,  10.1,   9.8,   0.0,  0.13, 
 08/05/12, 20:00,   8.0,  85,  11.4,  10.1,   9.8,   0.0,  0.00, 
 08/05/12, 21:00,   7.2,  92,  11.2,  10.3,   9.8,   0.0,  0.00, 
 08/05/12, 22:00,   5.9,  96,  10.8,  10.4,   9.8,   0.0,  0.00, 
 08/05/12, 23:00,   5.4,  86,  10.5,  10.4,   9.8,   0.0,  0.00, 
 08/05/13, 00:00,   4.5,  85,  10.2,  10.4,   9.8,   0.0,  0.00, 
 08/05/13, 01:00,   4.4,  74,   9.9,  10.4,   9.8,   0.0,  0.00, 
 08/05/13, 02:00,   4.4,  79,   9.6,  10.3,   9.7,   0.0,  0.00, 
 08/05/13, 03:00,   3.6,  79,   9.3,  10.3,   9.7,   0.0,  0.00, 
 08/05/13, 04:00,   2.9,  83,   8.9,  10.1,   9.7,   0.0,  0.00, 
 08/05/13, 05:00,   2.9,  78,   8.7,  10.0,   9.7,   0.0,  0.00, 
 08/05/13, 06:00,   4.7,  70,   8.4,   9.9,   9.6,   0.0,  0.14, 
 08/05/13, 07:00,   6.4,  69,   8.2,   9.8,   9.8,   0.0,  0.97, 
 08/05/13, 08:00,   8.9,  67,   8.3,   9.8,   9.8,   0.0,  1.78, 
 08/05/13, 09:00,  10.5,  61,   8.9,   9.6,   9.8,   0.0,  2.50, 
 08/05/13, 10:00,  12.1,  48,   9.6,   9.5,   9.8,   0.0,  3.14, 
 08/05/13, 11:00,  14.8,  33,  10.9,   9.5,   9.8,   0.0,  3.56, 
 08/05/13, 12:00,  16.9,  35,  12.4,   9.7,   9.8,   0.0,  3.79, 
 08/05/13, 13:00,  14.7,  42,  13.9,   9.9,   9.8,   0.0,  3.70, 
 08/05/13, 14:00,  16.9,  40,  14.3,  10.2,   9.9,   0.0,  3.45, 
 08/05/13, 15:00,  15.3,  47,  14.2,  10.5,   9.8,   0.0,  2.56, 
 08/05/13, 16:00,  15.9,  48,  14.2,  10.8,   9.9,   0.0,  2.26, 
 08/05/13, 17:00,  13.2,  58,  14.3,  11.1,   9.9,   0.0,  0.62, 
 08/05/13, 18:00,  10.8,  69,  14.2,  11.3,   9.9,   0.0,  0.11, 
 08/05/13, 19:00,  10.0,  70,  13.8,  11.4,   9.8,   0.0,  0.00, 
 08/05/13, 20:00,   9.4,  75,  13.4,  11.5,   9.8,   0.0,  0.00, 
 08/05/13, 21:00,   8.1,  82,  13.0,  11.7,  10.0,   0.0,  0.00, 
 08/05/13, 22:00,   6.9,  99,  12.6,  11.7,   9.9,   0.0,  0.00, 
 08/05/13, 23:00,   6.9,  99,  12.3,  11.6,   9.7,   1.5,  0.00, 
 08/05/14, 00:00,   7.1,  97,  12.0,  11.6,   9.8,   1.0,  0.00, 
 08/05/14, 01:00,   7.0,  96,  11.7,  11.6,   9.9,   1.0,  0.00, 
 08/05/14, 02:00,   7.1,  95,  11.4,  11.5,   9.9,   0.5,  0.00, 
 08/05/14, 03:00,   7.0,  98,  11.2,  11.4,   9.9,   1.5,  0.00, 
 08/05/14, 04:00,   7.3,  99,  11.0,  11.4,  10.0,   1.5,  0.00, 
 08/05/14, 05:00,   7.3,  99,  10.8,  11.3,   9.9,   0.0,  0.00, 
 08/05/14, 06:00,   7.0,  99,  10.5,  11.2,  10.0,   2.0,  0.00, 
 08/05/14, 07:00,   6.4,  99,  10.4,  11.1,  10.0,   6.5,  0.03, 
 08/05/14, 08:00,   6.1,  99,  10.2,  11.0,  10.1,   1.5,  0.24, 
 08/05/14, 09:00,   7.8,  99,  10.1,  10.9,  10.2,   0.5,  0.98, 
 08/05/14, 10:00,   9.8,  99,  10.3,  10.8,  10.2,   0.0,  1.50, 
 08/05/14, 11:00,   8.6,  99,  10.8,  10.8,  10.2,   0.0,  0.99, 
 08/05/14, 12:00,   9.4,  77,  11.2,  10.7,  10.3,   0.0,  1.84, 
 08/05/14, 13:00,  11.4,  70,  11.6,  10.7,  10.3,   0.0,  2.04, 
 08/05/14, 14:00,  11.2,  56,  12.0,  10.9,  10.3,   0.0,  2.42, 
 08/05/14, 15:00,   6.5,  99,  12.2,  10.9,  10.2,   2.5,  0.23, 
 08/05/14, 16:00,   6.3,  99,  12.0,  11.0,  10.4,   1.0,  0.15, 
 08/05/14, 17:00,   8.1,  99,  11.7,  11.0,  10.2,   0.0,  0.80, 
 08/05/14, 18:00,   7.2,  99,  11.7,  11.2,  10.1,   0.0,  0.18, 
 08/05/14, 19:00,   6.0,  99,  11.5,  11.2,  10.4,   0.0,  0.07, 
 08/05/14, 20:00,   5.3,  99,  11.3,  11.2,  10.4,   0.0,  0.00, 
 08/05/14, 21:00,   4.6,  99,  11.1,  11.1,  10.3,   0.0,  0.00, 
 08/05/14, 22:00,   3.4,  99,  10.8,  11.1,  10.4,   0.0,  0.00, 
 08/05/14, 23:00,   4.2,  98,  10.5,  11.1,  10.4,   0.0,  0.00, 
 08/05/15, 00:00,   3.0,  99,  10.2,  10.9,  10.2,   0.0,  0.00, 
 08/05/15, 01:00,   2.2,  99,   9.9,  10.9,  10.2,   0.0,  0.00, 
 08/05/15, 02:00,   2.3,  98,   9.6,  10.8,  10.2,   0.0,  0.00, 
 08/05/15, 03:00,   3.8,  93,   9.3,  10.7,  10.3,   0.0,  0.00, 
 08/05/15, 04:00,   2.3,  97,   9.0,  10.6,  10.2,   0.0,  0.00, 
 08/05/15, 05:00,   2.2,  90,   8.8,  10.4,  10.1,   0.0,  0.00, 
 08/05/15, 06:00,   2.6,  78,   8.5,  10.4,  10.3,   0.0,  0.14, 
 08/05/15, 07:00,   4.9,  77,   8.3,  10.2,  10.1,   0.0,  0.98, 
 08/05/15, 08:00,   5.8,  76,   8.2,  10.1,  10.2,   0.0,  1.78, 
 08/05/15, 09:00,   7.4,  79,   8.7,  10.0,  10.4,   0.0,  2.53, 
 08/05/15, 10:00,  10.5,  74,   9.5,   9.9,  10.3,   0.0,  3.14, 
 08/05/15, 11:00,  12.2,  61,  10.6,   9.9,  10.4,   0.0,  3.55, 
 08/05/15, 12:00,  13.8,  55,  12.1,  10.0,  10.4,   0.0,  3.76, 
 08/05/15, 13:00,  14.3,  41,  13.6,  10.1,  10.3,   0.0,  3.78, 
 08/05/15, 14:00,  13.9,  32,  13.9,  10.4,  10.1,   0.0,  3.51, 
 08/05/15, 15:00,  14.6,  32,  13.8,  10.6,  10.1,   0.0,  3.06, 
 08/05/15, 16:00,  14.3,  39,  13.7,  11.0,  10.1,   0.0,  2.44, 
 08/05/15, 17:00,  12.5,  50,  13.9,  11.2,  10.1,   0.0,  1.68, 
 08/05/15, 18:00,  10.7,  59,  13.9,  11.4,  10.1,   0.0,  0.87, 
 08/05/15, 19:00,   8.6,  71,  13.7,  11.5,  10.3,   0.0,  0.18, 
 08/05/15, 20:00,   6.4,  80,  13.2,  11.6,  10.3,   0.0,  0.00, 
 08/05/15, 21:00,   5.4,  85,  12.6,  11.7,  10.1,   0.0,  0.00, 
 08/05/15, 22:00,   4.9,  87,  12.2,  11.7,  10.3,   0.0,  0.00, 
 08/05/15, 23:00,   4.6,  88,  11.8,  11.7,  10.3,   0.0,  0.00, 
 08/05/16, 00:00,   4.2,  89,  11.4,  11.7,  10.3,   0.0,  0.00, 
 08/05/16, 01:00,   3.9,  83,  11.0,  11.6,  10.4,   0.0,  0.00, 